{"data":{"norad_id":69104,"epoch":"2026-09-19T20:38:09.800160Z","epoch_age_seconds":78476,"freshness":"FRESH","line1":"1 69104U 26108A   26262.85983565 -.01759069  00000+0 -30950+1 0  9999","line2":"2 69104  89.0189  12.5973 0004051  67.5619 292.5958 13.47050109 17220","mean_motion":13.47050109,"eccentricity":0.0004051,"inclination_deg":89.0189,"raan_deg":12.5973,"arg_perigee_deg":67.5619,"mean_anomaly_deg":292.5958,"bstar":-3.095,"rev_number":1722,"period_min":106.90025488874,"perigee_km":1080.1090263537,"apogee_km":1086.1541461623,"semimajor_km":7461.268586258,"source":"CELESTRAK","updated_at":"2026-09-20T09:00:24.677112Z"}}